OE3PDB-3 Weather Reports


Display with metric or nautical units.
time (UTC)temp
F
wind
direction
speed
MPH
gust
MPH
rain 1hr
in
rain 24hr
in
rain mn
in
humidity
%
barometer
mb
20260905215050 62 135 0.0 0.0 0.00 0.00 0.00 68 1022.2
20260905214050 63 67 0.0 0.0 0.00 0.00 0.00 68 1022.2
20260905213050 63 135 0.0 0.0 0.00 0.00 0.00 68 1022.1
20260905212051 63 22 0.0 0.0 0.00 0.00 0.00 67 1021.9
20260905211051 64 135 0.0 0.0 0.00 0.00 0.00 66 1021.7
20260905210051 64 157 0.0 0.0 0.00 0.00 0.00 66 1021.7
20260905205051 64 67 0.0 0.0 0.00 0.00 0.00 65 1021.7
20260905204051 64 157 0.0 0.0 0.00 0.00 0.00 65 1021.7
20260905203051 64 135 0.0 0.0 0.00 0.00 0.00 65 1021.6
20260905202051 64 45 0.0 0.0 0.00 0.00 0.00 65 1021.6
20260905201051 64 67 0.0 0.0 0.00 0.00 0.00 64 1021.5
20260905200051 64 90 0.0 0.0 0.00 0.00 0.00 64 1021.5
20260905195051 64 22 0.0 0.0 0.00 0.00 0.00 64 1021.5
20260905194051 65 22 0.0 0.0 0.00 0.00 0.00 64 1021.5
20260905193051 65 112 0.0 0.0 0.00 0.00 0.00 64 1021.5
20260905192051 65 67 0.0 0.0 0.00 0.00 0.00 64 1021.4
20260905191051 65 112 0.0 0.0 0.00 0.00 0.00 63 1021.3
20260905190051 65 90 0.0 0.0 0.00 0.00 0.00 63 1021.2
20260905185051 66 202 0.0 0.0 0.00 0.00 0.00 62 1021.2
20260905184051 66 135 0.0 0.0 0.00 0.00 0.00 61 1021.1
20260905183051 66 112 0.0 0.0 0.00 0.00 0.00 61 1020.8
20260905182051 66 45 0.0 0.0 0.00 0.00 0.00 60 1020.7
20260905181051 67 67 0.0 0.0 0.00 0.00 0.00 59 1020.7
20260905180051 67 22 0.0 0.0 0.00 0.00 0.00 58 1020.6
20260905175051 68 22 0.0 0.0 0.00 0.00 0.00 57 1020.4
20260905174051 68 90 0.0 0.0 0.00 0.00 0.00 56 1020.1
20260905173051 69 90 0.0 0.0 0.00 0.00 0.00 55 1020.1
20260905172051 69 67 0.0 0.0 0.00 0.00 0.00 54 1020.0
20260905171051 70 22 0.0 0.0 0.00 0.00 0.00 53 1019.9
20260905170051 71 292 0.0 0.0 0.00 0.00 0.00 52 1020.0
20260905165051 71 315 0.0 0.0 0.00 0.00 0.00 51 1019.9
20260905164051 73 67 0.0 0.0 0.00 0.00 0.00 49 1019.7
20260905163051 73 135 0.0 0.0 0.00 0.00 0.00 49 1019.6
20260905162051 74 90 0.0 0.0 0.00 0.00 0.00 48 1019.5
20260905161051 75 90 0.0 0.0 0.00 0.00 0.00 47 1019.5
20260905160051 76 337 0.0 0.0 0.00 0.00 0.00 46 1019.5
20260905155051 77 45 0.0 0.0 0.00 0.00 0.00 45 1019.5
20260905154051 78 225 0.0 0.0 0.00 0.00 0.00 44 1019.5
20260905153051 79 135 0.0 0.0 0.00 0.00 0.00 44 1019.5
20260905152051 79 112 0.0 0.0 0.00 0.00 0.00 44 1019.5
20260905151051 79 157 0.0 0.0 0.00 0.00 0.00 43 1019.4
20260905150051 79 135 0.0 0.0 0.00 0.00 0.00 44 1019.4
20260905145051 79 112 4.0 4.0 0.00 0.00 0.00 44 1019.4
20260905144051 79 45 0.0 0.0 0.00 0.00 0.00 46 1019.3
20260905143051 79 292 0.0 0.0 0.00 0.00 0.00 46 1019.4
20260905142051 80 112 0.0 0.0 0.00 0.00 0.00 46 1019.4
20260905141051 79 22 0.0 0.0 0.00 0.00 0.00 46 1019.4
20260905140051 79 22 0.0 0.0 0.00 0.00 0.00 47 1019.4
20260905135051 78 315 0.0 0.0 0.00 0.00 0.00 48 1019.4
20260905134051 78 315 0.0 0.0 0.00 0.00 0.00 49 1019.5
20260905133051 77 0 0.0 0.0 0.00 0.00 0.00 50 1019.6
20260905132051 77 112 0.0 0.0 0.00 0.00 0.00 51 1019.7
20260905131051 76 0 0.0 0.0 0.00 0.00 0.00 52 1019.7
20260905130051 75 112 0.0 0.0 0.00 0.00 0.00 53 1019.9
20260905125052 74 45 0.0 0.0 0.00 0.00 0.00 54 1020.0
20260905124052 72 90 0.0 0.0 0.00 0.00 0.00 56 1020.0
20260905123052 72 0 0.0 0.0 0.00 0.00 0.00 57 1020.0
20260905122052 70 22 0.0 0.0 0.00 0.00 0.00 59 1020.0
20260905121052 69 337 0.0 0.0 0.00 0.00 0.00 59 1020.0
20260905120052 70 292 0.0 0.0 0.00 0.00 0.00 59 1020.1
20260905115052 70 67 0.0 0.0 0.00 0.00 0.00 60 1020.0
20260905114052 70 292 0.0 0.0 0.00 0.00 0.00 61 1020.0
20260905113052 69 22 0.0 0.0 0.00 0.00 0.00 62 1020.0
20260905112052 69 0 0.0 0.0 0.00 0.00 0.00 63 1020.0
20260905111052 69 22 0.0 0.0 0.00 0.00 0.00 65 1020.1
20260905110052 68 67 0.0 0.0 0.00 0.00 0.00 67 1020.0
20260905105052 68 112 0.0 0.0 0.00 0.00 0.00 69 1020.1
20260905104052 68 45 0.0 0.0 0.00 0.00 0.00 69 1020.1
20260905103052 67 157 0.0 0.0 0.00 0.00 0.00 70 1020.1
20260905102052 67 22 0.0 0.0 0.00 0.00 0.00 71 1020.2
20260905101052 66 22 0.0 0.0 0.00 0.00 0.00 71 1020.3
20260905100052 66 112 0.0 0.0 0.00 0.00 0.00 73 1020.2
20260905095052 65 90 0.0 0.0 0.00 0.00 0.00 74 1020.1
20260905094052 65 112 0.0 0.0 0.00 0.00 0.00 74 1020.2
20260905093052 64 45 0.0 0.0 0.00 0.00 0.00 75 1020.2
20260905092052 64 135 0.0 0.0 0.00 0.00 0.00 76 1020.2
20260905091052 63 112 0.0 0.0 0.00 0.00 0.00 77 1020.1
20260905090052 62 45 0.0 0.0 0.00 0.00 0.00 77 1020.0
20260905085052 62 22 0.0 0.0 0.00 0.00 0.00 77 1020.0
20260905084052 61 22 0.0 0.0 0.00 0.00 0.00 78 1020.0
20260905083052 61 22 0.0 0.0 0.00 0.00 0.00 77 1020.1
20260905082052 60 67 0.0 0.0 0.00 0.00 0.00 77 1020.2
20260905081052 60 112 0.0 0.0 0.00 0.00 0.00 76 1020.6
20260905080052 60 135 0.0 0.0 0.00 0.00 0.00 77 1020.4
20260905075052 60 135 0.0 0.0 0.00 0.00 0.00 77 1020.6
20260905074052 59 135 0.0 0.0 0.00 0.00 0.00 77 1020.7
20260905073052 59 112 0.0 0.0 0.00 0.00 0.00 76 1020.4
20260905072052 59 157 0.0 0.0 0.00 0.00 0.00 76 1020.7
20260905071052 59 157 0.0 0.0 0.00 0.00 0.00 76 1020.5
20260905070052 59 157 0.0 0.0 0.00 0.00 0.00 75 1020.2
20260905065052 59 157 0.0 0.0 0.00 0.00 0.00 74 1019.5
20260905064052 60 90 0.0 0.0 0.00 0.00 0.00 73 1020.4
20260905063052 60 67 0.0 0.0 0.00 0.00 0.00 71 1020.4
20260905062052 61 180 0.0 0.0 0.00 0.00 0.00 70 1019.8
20260905061052 61 67 0.0 0.0 0.00 0.00 0.00 68 1019.5
20260905060052 62 45 0.0 0.0 0.00 0.00 0.00 66 1019.7
20260905055052 62 157 0.0 0.0 0.00 0.00 0.00 64 1019.3
20260905054052 62 22 0.0 0.0 0.00 0.00 0.00 64 1018.8
20260905053052 62 22 0.0 0.0 0.00 0.00 0.00 64 1018.8
20260905052052 62 0 0.0 0.0 0.00 0.00 0.00 65 1018.3
20260905051052 62 22 0.0 0.0 0.00 0.00 0.00 66 1018.1
20260905050052 62 112 0.0 0.0 0.00 0.00 0.00 66 1017.7
20260905045053 62 135 0.0 0.0 0.00 0.00 0.00 67 1017.8
20260905044053 62 135 0.0 0.0 0.00 0.00 0.00 68 1017.3
20260905043053 63 67 0.0 0.0 0.00 0.00 0.00 69 1017.3
20260905042053 63 67 0.0 0.0 0.00 0.00 0.00 68 1017.9
20260905041053 63 247 0.0 0.0 0.00 0.00 0.00 68 1017.6
20260905040053 64 225 0.0 0.0 0.00 0.00 0.00 66 1017.1
20260905035053 65 247 0.0 0.0 0.00 0.00 0.00 66 1017.0
20260905034053 66 135 0.0 0.0 0.00 0.00 0.00 64 1017.1
20260905033053 68 135 0.0 0.0 0.00 0.00 0.00 62 1017.4
20260905032053 68 157 0.0 0.0 0.00 0.00 0.00 62 1016.2
20260905031053 69 112 0.0 0.0 0.00 0.00 0.00 61 1016.5
20260905030053 70 22 0.0 0.0 0.00 0.00 0.00 59 1015.9
20260905025053 70 112 0.0 0.0 0.00 0.00 0.00 58 1015.0
20260905024053 69 180 0.0 0.0 0.00 0.00 0.00 59 1014.3
20260905023053 69 45 0.0 0.0 0.00 0.00 0.00 60 1014.3
20260905022053 69 135 0.0 0.0 0.00 0.00 0.00 59 1014.0
20260905021053 70 112 0.0 0.0 0.00 0.00 0.00 57 1014.2
20260905020053 71 45 0.0 0.0 0.00 0.00 0.00 55 1014.1
20260905015053 71 67 0.0 0.0 0.00 0.00 0.00 52 1014.2
20260905014053 72 337 0.0 0.0 0.00 0.00 0.00 51 1013.9
20260905013053 72 45 0.0 0.0 0.00 0.00 0.00 51 1013.9
20260905012053 72 67 0.0 0.0 0.00 0.00 0.00 51 1013.9
20260905011053 72 45 0.0 0.0 0.00 0.00 0.00 51 1013.8
20260905010053 72 67 0.0 0.0 0.00 0.00 0.00 51 1013.8
20260905005053 72 112 0.0 0.0 0.00 0.00 0.00 50 1013.7
20260905004053 72 22 0.0 0.0 0.00 0.00 0.00 50 1013.7
20260905003053 72 157 0.0 0.0 0.00 0.00 0.00 50 1013.8
20260905002053 73 45 0.0 0.0 0.00 0.00 0.00 50 1013.7
20260905001053 73 112 0.0 0.0 0.00 0.00 0.00 50 1013.4
20260904235052 73 315 0.0 0.0 0.00 0.00 0.00 49 1013.3
20260904234052 73 292 0.0 0.0 0.00 0.00 0.00 49 1013.3
20260904233052 73 135 0.0 0.0 0.00 0.00 0.00 50 1013.2
20260904232052 73 112 0.0 0.0 0.00 0.00 0.00 50 1013.2
20260904231052 72 112 0.0 0.0 0.00 0.00 0.00 50 1013.1
20260904230052 72 90 0.0 0.0 0.00 0.00 0.00 50 1013.1
20260904225052 72 135 0.0 0.0 0.00 0.00 0.00 50 1013.1
20260904224052 72 90 0.0 0.0 0.00 0.00 0.00 50 1013.0
20260904223052 72 315 0.0 0.0 0.00 0.00 0.00 49 1013.0
20260904222052 72 315 0.0 0.0 0.00 0.00 0.00 49 1013.0
20260904221052 72 90 0.0 0.0 0.00 0.00 0.00 49 1013.0
20260904220052 73 45 0.0 0.0 0.00 0.00 0.00 49 1013.0